Weather History for KBMG - November, 2013

Change the Weather History Date:

Wednesday, November 27, 2013

  Actual Average Record
Temperature  
Mean Temperature 24 °F 39 °F  
Max Temperature 32 °F 47 °F 66 °F (2006)
Min Temperature 16 °F 30 °F 15 °F (1996)
Degree Days  
Heating Degree Days 41 26  
Month to date heating degree days 633 555  
Since 1 July heating degree days 1037 974  
Cooling Degree Days 0 0  
Month to date cooling degree days 0 0  
Year to date cooling degree days 1006 926  
Moisture  
Dew Point 12 °F    
Average Humidity 59    
Maximum Humidity 75    
Minimum Humidity 42    
Precipitation  
Precipitation T in 0.13 in 0.90 in (2003)
Month to date precipitation 2.20 3.55  
Year to date precipitation 40.87 43.62  
Sea Level Pressure  
Sea Level Pressure 30.17 in    
Wind  
Wind Speed 7 mph (NW)    
Max Wind Speed 15 mph    
Max Gust Speed 22 mph    
Visibility 9 miles    
Events Snow    
T = Trace of Precipitation, MM = Missing Value Source: NWS Daily Summary

Daily Weather History Graph

Daily Weather History Graph

Search for Another Location

Airport or City:

Trip Planner

Search our weather history database for the weather conditions in past years. The results will help you decide how hot, cold, wet, or windy it might be!

Date:

Astronomy

Nov. 27, 2013 Rise Set
Actual Time 7:42 AM EST 5:25 PM EST
Civil Twilight 7:13 AM EST 5:54 PM EST
Nautical Twilight 6:40 AM EST 6:27 PM EST
Astronomical Twilight 6:08 AM EST 6:59 PM EST
Moon 1:46 AM EST (11/27) 2:00 PM EST (11/27)
Length of Visible Light 10h 41m
Length of Day
9h 42m
Waning Crescent, 32% of the Moon is Illuminated
Nov 27
Waning Crescent
Dec 2
New
Dec 9
First Quarter
Dec 17
Full
Dec 25
Last Quarter

Hourly Weather History & Observations

Time (EST) Temp. Windchill Dew Point Humidity Pressure Visibility Wind Dir Wind Speed Gust Speed Precip Events Conditions
12:53 AM 30.9 °F 22.8 °F 21.0 °F 67% 30.04 in 10.0 mi North 9.2 mph 17.3 mph N/A   Overcast
1:01 AM 30.9 °F 21.7 °F 19.9 °F 64% 30.01 in 10.0 mi North 11.5 mph 17.3 mph N/A   Overcast
1:13 AM 30.0 °F 20.0 °F 21.0 °F 69% 30.02 in 10.0 mi NW 12.7 mph - N/A   Overcast
1:53 AM 28.9 °F 22.8 °F 21.0 °F 72% 30.04 in 10.0 mi Variable 5.8 mph 17.3 mph N/A   Overcast
2:53 AM 28.0 °F 19.3 °F 19.9 °F 72% 30.05 in 10.0 mi NW 9.2 mph - N/A   Overcast
3:53 AM 27.0 °F 15.2 °F 19.9 °F 75% 30.06 in 10.0 mi North 15.0 mph 20.7 mph N/A   Overcast
4:53 AM 26.1 °F 18.4 °F 18.0 °F 71% 30.07 in 10.0 mi NW 6.9 mph - N/A   Overcast
5:53 AM 24.1 °F 13.7 °F 12.9 °F 62% 30.10 in 10.0 mi NW 10.4 mph 17.3 mph N/A   Overcast
6:03 AM 24.1 °F 13.1 °F 12.9 °F 62% 30.08 in 10.0 mi NW 11.5 mph - N/A   Overcast
6:53 AM 21.9 °F 12.5 °F 10.9 °F 63% 30.12 in 10.0 mi WNW 8.1 mph - N/A   Overcast
7:53 AM 18.0 °F 8.7 °F 8.1 °F 65% 30.15 in 10.0 mi NW 6.9 mph - N/A   Clear
8:53 AM 17.1 °F 5.8 °F 8.1 °F 68% 30.17 in 10.0 mi NNW 9.2 mph - N/A   Clear
9:19 AM 18.0 °F 5.4 °F 9.0 °F 68% 30.15 in 10.0 mi NW 11.5 mph 16.1 mph N/A   Mostly Cloudy
9:53 AM 19.0 °F 10.0 °F 10.0 °F 68% 30.19 in 5.0 mi WNW 6.9 mph 16.1 mph 0.00 in Snow Light Snow
10:53 AM 21.0 °F 9.3 °F 10.9 °F 65% 30.19 in 10.0 mi NW 11.5 mph 17.3 mph 0.00 in   Overcast
11:34 AM 23.0 °F 10.6 °F 12.0 °F 63% 30.16 in 10.0 mi WNW 13.8 mph 18.4 mph N/A   Overcast
11:53 AM 21.9 °F 11.0 °F 12.0 °F 66% 30.19 in 5.0 mi West 10.4 mph - 0.00 in Snow Light Snow
12:33 PM 23.0 °F 12.4 °F 12.9 °F 65% 30.16 in 3.0 mi WNW 10.4 mph - 0.00 in Snow Light Snow
12:53 PM 23.0 °F 15.8 °F 14.0 °F 68% 30.19 in 2.5 mi WNW 5.8 mph - 0.00 in Snow Light Snow
1:03 PM 23.0 °F 14.7 °F 12.0 °F 63% 30.16 in 5.0 mi Variable 6.9 mph 19.6 mph 0.00 in Snow Light Snow
1:53 PM 27.0 °F 17.3 °F 10.9 °F 51% 30.19 in 10.0 mi WNW 10.4 mph - 0.00 in   Mostly Cloudy
2:53 PM 26.1 °F 16.2 °F 9.0 °F 49% 30.20 in 10.0 mi WNW 10.4 mph 19.6 mph N/A   Clear
3:53 PM 26.1 °F 16.8 °F 6.1 °F 43% 30.22 in 10.0 mi WNW 9.2 mph - N/A   Clear
4:53 PM 25.0 °F 16.3 °F 6.1 °F 45% 30.25 in 10.0 mi WNW 8.1 mph - N/A   Clear
5:53 PM 23.0 °F 17.0 °F 7.0 °F 50% 30.28 in 10.0 mi WNW 4.6 mph - N/A   Clear
6:53 PM 18.0 °F - 8.1 °F 65% 30.29 in 10.0 mi Calm Calm - N/A   Clear
7:53 PM 18.0 °F 11.1 °F 8.1 °F 65% 30.31 in 10.0 mi West 4.6 mph - N/A   Clear
8:53 PM 19.0 °F - 8.1 °F 62% 30.32 in 10.0 mi Calm Calm - N/A   Clear
9:53 PM 17.1 °F - 8.1 °F 68% 30.32 in 10.0 mi Calm Calm - N/A   Clear
10:53 PM 18.0 °F - 8.1 °F 65% 30.34 in 10.0 mi Calm Calm - N/A   Clear
11:53 PM 18.0 °F - 8.1 °F 65% 30.34 in 10.0 mi Calm Calm - N/A   Clear